Weather History for Tanger, Morocco

Change the Weather History Date:

Sunday, November 25, 2012

  Actual Average Record
Temperature  
Mean Temperature 66 °F -  
Max Temperature 72 °F 62 °F 72 °F (2012)
Min Temperature 59 °F 48 °F 41 °F (1998)
Growing Degree Days 16 (Base 50)    
Moisture  
Dew Point 56 °F    
Average Humidity 75    
Maximum Humidity 88    
Minimum Humidity 51    
Precipitation  
Precipitation 0.00 in 0.17 in - ()
Sea Level Pressure  
Sea Level Pressure 30.03 in    
Wind  
Wind Speed 10 mph ()    
Max Wind Speed 15 mph    
Max Gust Speed -    
Visibility 5.2 miles    
Events      
Averages and records for this station are not official NWS values.
T = Trace of Precipitation, MM = Missing Value Source: Averaged Metar Reports

Daily Weather History Graph

Daily Weather History Graph

Search for Another Location

Airport:

Trip Planner

Search our weather history database for the weather conditions in past years. The results will help you decide how hot, cold, wet, or windy it might be!

Date:

Astronomy

Nov. 25, 2012 Rise Set
Actual Time 7:09 AM WET 5:11 PM WET
Civil Twilight 6:41 AM WET 5:39 PM WET
Nautical Twilight 6:10 AM WET 6:10 PM WET
Astronomical Twilight 5:39 AM WET 6:41 PM WET
Moon 3:17 PM WET (11/25) 4:14 AM WET (11/25)
Length of Visible Light 10h 57m
Length of Day
10h 01m
Waxing Gibbous, 91% of the Moon is Illuminated
Nov 25
Waxing Gibbous
Nov 28
Full
Dec 6
Last Quarter
Dec 13
New
Dec 20
First Quarter

Hourly Weather History & Observations

Time (WET) Temp. Dew Point Humidity Pressure Visibility Wind Dir Wind Speed Gust Speed Precip Events Conditions
12:00 AM 60 °F 56 °F 81% 30.09 in 5 mi ESE 9.2 mph - -   Scattered Clouds
12:00 AM 60.8 °F 55.4 °F 82% 30.06 in 5.0 mi ESE 9.2 mph - N/A   Mostly Cloudy
1:30 AM 60.8 °F 55.4 °F 82% 30.06 in 2.8 mi ESE 11.5 mph - N/A   Unknown
2:00 AM 60.8 °F 55.4 °F 82% 30.06 in - East 10.4 mph - N/A   Unknown
2:30 AM 60.8 °F 55.4 °F 82% 30.04 in - East 10.4 mph - N/A   Unknown
3:00 AM 61 °F 55 °F 73% 30.06 in 3 mi ESE 11.5 mph - -  
3:00 AM 60.8 °F 55.4 °F 82% 30.04 in - ESE 11.5 mph - N/A   Unknown
3:30 AM 60.8 °F 55.4 °F 82% 30.04 in - ESE 10.4 mph - N/A   Unknown
4:00 AM 59.0 °F 55.4 °F 88% 30.04 in - East 10.4 mph - N/A   Unknown
4:30 AM 59.0 °F 53.6 °F 82% 30.04 in 5.0 mi East 10.4 mph - N/A   Mostly Cloudy
5:00 AM 59.0 °F 53.6 °F 82% 30.04 in 5.0 mi East 10.4 mph - N/A   Mostly Cloudy
6:00 AM 59 °F 54 °F 80% 30.05 in 5 mi East 9.2 mph - -   Scattered Clouds
6:00 AM 59.0 °F 55.4 °F 88% 30.04 in 5.0 mi East 9.2 mph - N/A   Mostly Cloudy
7:00 AM 59.0 °F 53.6 °F 82% 30.04 in 5.0 mi East 11.5 mph - N/A   Mostly Cloudy
8:00 AM 59.0 °F 55.4 °F 88% 30.04 in 5.0 mi ESE 12.7 mph - N/A   Mostly Cloudy
8:30 AM 60.8 °F 55.4 °F 82% 30.04 in 5.0 mi East 11.5 mph - N/A   Mostly Cloudy
9:00 AM 62 °F 56 °F 75% 30.07 in 5 mi East 11.5 mph - -   Scattered Clouds
9:00 AM 62.6 °F 55.4 °F 77% 30.06 in 5.0 mi East 11.5 mph - N/A   Mostly Cloudy
9:30 AM 64.4 °F 57.2 °F 77% 30.06 in 5.0 mi ESE 10.4 mph - N/A   Mostly Cloudy
10:00 AM 66.2 °F 57.2 °F 73% 30.06 in 5.0 mi ESE 10.4 mph - N/A   Mostly Cloudy
10:30 AM 68.0 °F 57.2 °F 68% 30.06 in 5.0 mi East 9.2 mph - N/A   Partly Cloudy
11:00 AM 68.0 °F 55.4 °F 64% 30.06 in 5.0 mi East 11.5 mph - N/A   Partly Cloudy
11:30 AM 69.8 °F 55.4 °F 60% 30.06 in 5.0 mi East 11.5 mph - N/A   Partly Cloudy
12:00 PM 71 °F 57 °F 51% 30.06 in 5 mi East 12.7 mph - -   Scattered Clouds
12:00 PM 69.8 °F 57.2 °F 64% 30.04 in 5.0 mi East 12.7 mph - N/A   Partly Cloudy
12:30 PM 71.6 °F 55.4 °F 57% 30.04 in 5.0 mi East 13.8 mph - N/A   Partly Cloudy
1:00 PM 71.6 °F 57.2 °F 60% 30.04 in 6.2 mi ESE 13.8 mph - N/A   Partly Cloudy
1:30 PM 71.6 °F 57.2 °F 60% 30.01 in 6.2 mi East 13.8 mph - N/A   Scattered Clouds
2:00 PM 71.6 °F 57.2 °F 60% 30.01 in 6.2 mi ESE 12.7 mph - N/A   Scattered Clouds
2:30 PM 71.6 °F 57.2 °F 60% 30.01 in 6.2 mi East 11.5 mph - N/A   Mostly Cloudy
3:00 PM 71 °F 57 °F 52% 30.01 in 6 mi East 12.7 mph - -   Scattered Clouds
3:00 PM 71.6 °F 57.2 °F 60% 30.01 in 6.2 mi East 12.7 mph - N/A   Mostly Cloudy
3:30 PM 69.8 °F 59.0 °F 68% 29.98 in 6.2 mi East 11.5 mph - N/A   Mostly Cloudy
4:00 PM 66.2 °F 59.0 °F 78% 29.98 in 6.2 mi ENE 9.2 mph - N/A   Mostly Cloudy
4:30 PM 64.4 °F 57.2 °F 77% 29.98 in 6.2 mi ENE 10.4 mph - N/A   Mostly Cloudy
5:00 PM 64.4 °F 57.2 °F 77% 29.98 in 6.2 mi ENE 9.2 mph - N/A   Mostly Cloudy
5:30 PM 62.6 °F 57.2 °F 82% 30.01 in 6.2 mi ENE 10.4 mph - N/A   Mostly Cloudy
6:00 PM 62 °F 56 °F 75% 30.02 in 5 mi ENE 12.7 mph - -   Partly Cloudy
6:00 PM 62.6 °F 55.4 °F 77% 30.01 in 5.0 mi ENE 12.7 mph - N/A   Mostly Cloudy
6:30 PM 62.6 °F 55.4 °F 77% 30.01 in 5.0 mi ENE 13.8 mph - N/A   Mostly Cloudy
7:00 PM 62.6 °F 55.4 °F 77% 30.01 in 5.0 mi East 15.0 mph - N/A   Mostly Cloudy
7:30 PM 60.8 °F 55.4 °F 82% 30.04 in 5.0 mi ENE 12.7 mph - N/A   Mostly Cloudy
8:00 PM 60.8 °F 55.4 °F 82% 30.01 in 5.0 mi East 10.4 mph - N/A   Mostly Cloudy
8:30 PM 60.8 °F 55.4 °F 82% 30.01 in 5.0 mi ESE 9.2 mph - N/A   Mostly Cloudy
9:00 PM 61 °F 55 °F 73% 30.02 in 5 mi East 10.4 mph - -   Partly Cloudy
9:30 PM 60.8 °F 53.6 °F 77% 30.01 in 5.0 mi East 13.8 mph - N/A   Mostly Cloudy
10:00 PM 60.8 °F 53.6 °F 77% 30.01 in 5.0 mi East 12.7 mph - N/A   Mostly Cloudy
10:30 PM 60.8 °F 53.6 °F 77% 30.01 in 5.0 mi East 9.2 mph - N/A   Mostly Cloudy
11:00 PM 60.8 °F 53.6 °F 77% 30.01 in 5.0 mi East 10.4 mph - N/A   Mostly Cloudy
11:30 PM 60.8 °F 53.6 °F 77% 30.01 in 5.0 mi East 10.4 mph - N/A   Mostly Cloudy